Regional Weather Roundup
Issued by NWS Kansas City/Pleasant Hill, MO

Home | Current Version | Previous Version | Text Only | Print | Product List | Glossary On
Versions: 1 2 3 4 5 6 7 8 9 10 11 12 13 14 15 16 17 18 19 20 21 22 23 24 25 26 27 28 29 30 31 32 33 34 35 36 37 38 39 40 41 42 43 44 45 46 47 48 49 50
000
ASUS43 KEAX 301410
RWREAX

WEATHER ROUNDUP FOR EASTERN KANSAS AND NORTHWEST MISSOURI
NATIONAL WEATHER SERVICE KANSAS CITY/PLEASANT HILL MO
900 AM CDT SUN AUG 30 2015

KSZ040-057-103>105-MOZ028-029-037-043-301500-
...KANSAS CITY METROPOLITAN AREA...

CITY           SKY/WX    TMP DP  RH WIND       PRES   REMARKS
K.C. INTL      FOG       68  64  87 SE5       30.05R VSB 1/4
K.C. DOWNTOWN  FOG       69  69 100 E3        30.04R VSB 3/4
LEES SUMMIT    FOG       69  68  96 E6        30.06R VSB 1/2
OLATHE - IXD   CLOUDY   N/A N/A N/A E7        30.05R FOG
OLATHE - OJC   CLOUDY    68  68 100 E7        30.04R FOG
LAWRENCE       FOG       68  67  96 NE3       30.05R VSB 1/2

$$

MOZ001>008-011>017-020>025-030>033-038>040-044>046-053-054-301500-
...NORTHERN AND CENTRAL MISSOURI...

CITY           SKY/WX    TMP DP  RH WIND       PRES   REMARKS
ST. JOSEPH     CLOUDY    65  64  97 N3        30.05R
MOSBY          FOG       68  68 100 CALM      30.05R VSB 1/2
WARRENSBURG    CLOUDY    70  68  94 NE5       30.04S FOG
WHITEMAN AFB   CLOUDY    71  71 100 E5        30.03S
CLINTON        SUNNY     72  72 100 CALM      30.04R FOG
SEDALIA        CLOUDY    71  69  93 E7        30.05S FOG
WARSAW         NOT AVBL
CHILLICOTHE      N/A     69  68  96 NE3       30.07R
KIRKSVILLE     FOG       69  68  96 E6        30.08R VSB 1/4

$$

MOZ041-047>049-056>058-063>065-088>090-097-301500-
...EASTERN AND SOUTHERN MISSOURI...

CITY           SKY/WX    TMP DP  RH WIND       PRES   REMARKS
ST. LOUIS INTL CLOUDY    78  66  66 W6        30.07R
SPIRIT OF STL  PTSUNNY   72  69  90 CALM      30.05R
COLUMBIA       PTSUNNY   72  69  90 S6        30.06S
JEFFERSON CITY CLOUDY    71  66  84 SE3       30.05R
ROLLA          CLOUDY    72  67  84 SW9       30.06R
OSAGE BEACH    CLOUDY    70  64  83 CALM      30.06R
SPRINGFIELD    PTSUNNY   72  67  84 SE12      30.05R
BRANSON        TSTM      68  68 100 SE13      30.07R
JOPLIN         MOSUNNY   70  70 100 SE6       30.03R FOG
WEST PLAINS    CLOUDY    72  66  81 W3        30.09S

$$

IAZ060-094-KSZ022-034>040-054-083-096-NEZ052-066-093-301500-
...KANSAS...SOUTHEAST NEBRASKA AND IOWA...

CITY           SKY/WX    TMP DP  RH WIND       PRES   REMARKS
TOPEKA         FOG       66  66 100 CALM      30.06R VSB 1/4
MANHATTAN      CLOUDY    63  62  97 CALM      30.06R FOG
EMPORIA        CLOUDY    67  65  93 NE3       30.05S
CHANUTE        FOG       69  68  96 E3        30.04R VSB 1/4
WICHITA        FOG       65  63  93 N3        30.06R VSB 1/2
OMAHA          CLOUDY    64  61  90 S8        30.06R FOG
LINCOLN        CLOUDY    63  61  93 SW7       30.06S FOG
FALLS CITY     FOG       62  62 100 NW3       30.05S VSB 1/2
LAMONI         FOG       65  64  97 CALM      30.06S VSB<1/4
DES MOINES     DRZL/FOG  64  62  93 S3        30.06R VSB 1/8

$$



USA.gov is the U.S. government's official web portal to all federal, state and local government web resources and services.